FW5829 Weather Reports


time (UTC)temp
C
wind
direction
speed
KPH
gust
KPH
rain 1hr
cm
rain 24hr
cm
rain mn
cm
humidity
%
barometer
mb
20260506014612 13 191 9.7 20.9 0.00 0.00 0.00 82 1009.0
20260506013057 13 147 9.7 19.3 0.00 0.00 0.00 80 1009.0
20260506011556 13 187 9.7 20.9 0.00 0.00 0.00 79 1008.9
20260506010104 13 174 9.7 19.3 0.00 0.00 0.00 79 1008.7
20260506004555 13 190 8.0 19.3 0.00 0.00 0.00 79 1008.4
20260506003054 14 214 9.7 19.3 0.00 0.00 0.00 78 1008.1
20260506001556 14 207 8.0 17.7 0.00 0.00 0.00 78 1007.6
20260506000053 14 172 8.0 14.5 0.00 0.00 0.00 78 1008.0
20260505234550 14 172 6.4 24.1 0.00 0.00 0.00 78 1008.2
20260505233057 12 189 17.7 38.6 0.00 0.00 0.00 83 1008.2
20260505231547 12 220 16.1 38.6 0.00 0.00 0.00 83 1006.0
20260505230050 12 187 20.9 43.5 0.00 0.00 0.00 84 1005.7
20260505224548 12 162 19.3 33.8 0.00 0.00 0.00 83 1005.5
20260505223049 12 182 22.5 41.8 0.00 0.00 0.00 83 1005.2
20260505221544 12 186 17.7 41.8 0.00 0.00 0.00 82 1005.1
20260505220045 12 200 20.9 43.5 0.00 0.00 0.00 82 1005.1
20260505214543 12 207 19.3 43.5 0.00 0.00 0.00 82 1004.9
20260505213046 12 185 20.9 40.2 0.00 0.00 0.00 82 1004.9
20260505211544 13 172 20.9 43.5 0.00 0.00 0.00 81 1005.0
20260505210039 13 195 22.5 51.5 0.00 0.00 0.00 80 1005.2
20260505204538 13 214 20.9 35.4 0.00 0.00 0.00 81 1005.1
20260505203044 13 180 24.1 46.7 0.00 0.00 0.00 81 1005.2
20260505201536 13 188 22.5 40.2 0.00 0.00 0.00 82 1005.4
20260505200036 13 175 19.3 40.2 0.00 0.00 0.00 82 1005.3
20260505194534 13 212 19.3 43.5 0.00 0.00 0.00 82 1005.7
20260505193042 13 196 22.5 41.8 0.00 0.00 0.00 83 1006.0
20260505191529 12 195 24.1 38.6 0.00 0.00 0.00 83 1006.3
20260505190038 13 176 22.5 37.0 0.00 0.00 0.00 82 1006.5
20260505184530 13 165 20.9 33.8 0.00 0.00 0.00 83 1006.5
20260505183027 13 182 22.5 40.2 0.00 0.00 0.00 83 1006.7
20260505181523 12 188 17.7 35.4 0.00 0.00 0.00 84 1006.9
20260505180028 12 200 20.9 32.2 0.00 0.00 0.00 83 1007.1
20260505174518 12 210 20.9 33.8 0.00 0.00 0.00 83 1007.5
20260505173016 12 195 20.9 30.6 0.00 0.00 0.00 85 1007.6
20260505171515 12 179 17.7 30.6 0.00 0.00 0.00 84 1007.5
20260505170016 14 185 16.1 22.5 0.00 0.00 0.00 79 1007.7
20260505164510 12 190 14.5 22.5 0.00 0.00 0.00 82 1008.0
20260505163009 12 184 19.3 30.6 0.00 0.00 0.00 84 1008.2
20260505161507 12 202 16.1 29.0 0.00 0.00 0.00 83 1008.6
20260505153004 13 181 6.4 14.5 0.00 0.00 0.00 82 1009.2
20260505151502 11 198 9.7 25.7 0.00 0.00 0.00 86 1009.6
20260505124548 12 191 16.1 24.1 0.00 0.00 0.00 83 1009.0
20260505123056 12 179 14.5 22.5 0.00 0.00 0.00 83 1008.8
20260505121545 12 203 9.7 22.5 0.00 0.00 0.00 83 1008.9
20260505120054 11 204 12.9 24.1 0.00 0.00 0.00 83 1008.9
20260505114548 11 177 16.1 33.8 0.00 0.00 0.00 83 1009.1
20260505113050 11 172 14.5 29.0 0.00 0.00 0.00 84 1009.1
20260505111544 11 167 11.3 17.7 0.00 0.00 0.00 84 1009.1
20260505101538 10 195 4.8 17.7 0.00 0.00 0.00 86 1008.9
20260505100038 10 188 8.0 16.1 0.00 0.00 0.00 86 1008.8
20260505094534 9 210 4.8 11.3 0.00 0.00 0.00 86 1008.9
20260505093034 9 224 4.8 9.7 0.00 0.00 0.00 87 1009.0
20260505091533 9 195 3.2 8.0 0.00 0.00 0.00 87 1008.9
20260505090032 9 198 1.6 8.0 0.00 0.00 0.00 86 1009.0
20260505084544 9 185 3.2 8.0 0.00 0.00 0.00 85 1009.1
20260505083046 10 169 3.2 8.0 0.00 0.00 0.00 85 1009.1
20260505081537 9 191 4.8 8.0 0.00 0.00 0.00 85 1009.0
20260505080043 8 195 1.6 6.4 0.00 0.00 0.00 86 1009.0
20260505074525 9 189 1.6 8.0 0.00 0.00 0.00 85 1009.0
20260505073035 10 169 3.2 8.0 0.00 0.00 0.00 84 1009.0
20260505071526 10 193 1.6 4.8 0.00 0.00 0.00 82 1009.0
20260505070020 10 198 3.2 6.4 0.00 0.00 0.00 82 1008.9
20260505064518 10 184 1.6 6.4 0.00 0.00 0.00 82 1008.9
20260505063016 10 197 3.2 8.0 0.00 0.00 0.00 80 1008.9
20260505061524 11 159 3.2 6.4 0.00 0.00 0.00 79 1009.0
20260505060015 11 221 3.2 9.7 0.00 0.00 0.00 78 1008.9
20260505054510 11 169 4.8 11.3 0.00 0.00 0.00 77 1008.9
20260505053008 11 196 4.8 12.9 0.00 0.00 0.00 77 1008.8
20260505051506 11 195 4.8 11.3 0.00 0.00 0.00 77 1008.8
20260505041601 13 212 8.0 17.7 0.00 0.00 0.00 72 1008.3
20260505040050 13 163 8.0 22.5 0.00 0.00 0.00 69 1008.2
20260505034548 13 212 6.4 12.9 0.00 0.00 0.00 69 1008.2
20260505033049 13 233 9.7 22.5 0.00 0.00 0.00 68 1008.0
20260505031548 14 233 11.3 19.3 0.00 0.00 0.00 67 1008.0
20260505030108 14 150 9.7 19.3 0.00 0.00 0.00 68 1007.9
20260505024550 13 195 8.0 17.7 0.00 0.00 0.00 70 1007.9
20260505023046 13 187 9.7 25.7 0.00 0.00 0.00 73 1007.9
20260505021546 12 219 6.4 19.3 0.00 0.00 0.00 76 1007.9
20260505020047 12 213 4.8 17.7 0.00 0.00 0.00 77 1007.7